Location: Newark
(29.9790°N, 31.1340°E)
Time: 15:39:27
(UTC+00:00)

Transit 2A Rocket - Pass Details

Date: 26 January 2020
Orbit: 592 x 911 km, 66.7° (Epoch: 16 February)

Event Time Altitude Azimuth Distance (km) Brightness Sun altitude
Rises 03:23:53 0° 240° (WSW) 2,860 - -18.5°
Reaches altitude 10° 03:26:47 10° 260° (W) 1,933 - -17.9°
Maximum altitude 03:29:41 17° 303° (WNW) 1,496 - -17.3°
Exits shadow 03:32:18 11° 343° (NNW) 1,850 6.7 -16.7°
Drops below altitude 10° 03:32:35 10° 346° (NNW) 1,923 6.8 -16.7°
Sets 03:35:29 0° 6° (N) 2,839 7.9 -16.1°
